Disclaimer

Please do not use the information listed here in-flight or in-navigation, as they are not provided to us by the airports but are provided by volunteers, so they might be outdated.

Search


Regions


Airport information page

Radio informations:
Tower (TWR) - 122.6 MHz
Approach (APP) - 122.6 MHz

Airport informations:
Latitude: 57° 32' 33.00" N
Longitude: 004° 02' 51.00" W
Elevation: 31 feet - 9 meters
Operating hours: Remarks
Operating agency: Civil government, landing fees and diplomatic clearance may be required
Timezone: UTC 0(+1DT) - Last Sunday in March to last Sunday in October
Fuel: Jet A1, without icing nhibitor.

100/130 MIL Spec, low lead, aviation gasoline (BLUE)

Runway information:
05/23 - 6191 x 151 feet< - >1887 x 46 meters
12/30 - 2297 x 59 feet< - >700 x 18 meters

Recent METARs:
EGPE 212120Z AUTO 22012KT 9999 -RA BKN015/// BKN019/// OVC044/// 03/02 Q0998
EGPE 212150Z AUTO 21009KT 9999 FEW017/// 03/01 Q0997
EGPE 212220Z AUTO 22007KT 9999 OVC049/// 03/01 Q0997

Airport on the map: